Location: Liscomb Game Sanctuary
(45.1633°N, 62.5575°W)
Time: 09:47:06
(UTC-03:00)

Amateur Radio Satellites - All Passes

Search period start: 01 July 2015 09:17
Search period end: 02 July 2015 09:17
Location: Liscomb Game Sanctuary, 45.1633°N, 62.5575°W

Satellite Date Start Highest point End Downlink Frequencies (MHz)
Time Altitude Azimuth
Cubesat XI-IV 01 Jul 09:20:49 09:24:15 17° 301° (WNW) 09:27:30 437.490
GONETS M04 01 Jul 09:23:54 09:32:04 46° 89° (E) 09:40:18
ANTELSAT 01 Jul 09:31:27 09:33:29 14° 62° (ENE) 09:35:41 437.575/2403.000
CUTE 1.7 + AOD 2 01 Jul 09:36:09 09:40:18 47° 99° (E) 09:44:27 437.475
COMPASS 1 01 Jul 09:38:41 09:42:30 33° 96° (E) 09:46:20 437.405
CANX-2 01 Jul 09:38:51 09:43:04 56° 100° (E) 09:47:18 2200.000
TIGRISAT 01 Jul 09:44:42 09:47:29 18° 64° (ENE) 09:50:23 435.000
GOMX 1 01 Jul 09:46:55 09:51:14 75° 285° (WNW) 09:55:22 467.674
BRITE-PL 01 Jul 09:52:24 09:56:37 40° 290° (WNW) 10:00:35 437.365/2234.400
ISS 01 Jul 09:55:27 09:58:23 32° 141° (SE) 10:01:20 145.825
DELFI C3 01 Jul 09:58:50 10:01:06 15° 89° (E) 10:03:32 145.870
CUBEBUG 2 01 Jul 10:02:43 10:05:58 22° 93° (E) 10:09:20 437.445
AIST 2 01 Jul 10:09:15 10:13:30 80° 124° (SE) 10:17:48 435.215
O/OREOS (USA 219) 01 Jul 10:12:38 10:16:06 21° 308° (NW) 10:19:30 437.305
QB50P1 01 Jul 10:18:49 10:21:37 18° 64° (ENE) 10:24:33 145.935-145.965
Cosmos 2499 01 Jul 10:19:03 10:23:11 17° 80° (E) 10:27:40 435.465 / 435.565
HO-68 01 Jul 10:20:08 10:27:20 84° 288° (WNW) 10:34:30 435.675
CUSAT 1 01 Jul 10:20:33 10:25:49 24° 290° (WNW) 10:30:02 437.405
UNISAT 6 01 Jul 10:21:21 10:25:23 41° 71° (ENE) 10:29:25 437.425
ZACube-1 01 Jul 10:21:33 10:24:48 22° 93° (E) 10:28:11 437.345
CINEMA 3 01 Jul 10:25:14 10:29:24 81° 102° (ESE) 10:33:36 145.822/145.860
SEEDS 01 Jul 10:30:36 10:34:46 54° 287° (WNW) 10:38:55 437.485
NANOSAT C BR1 01 Jul 10:33:51 10:37:16 24° 67° (ENE) 10:40:44 145.865
UKube-1 01 Jul 10:37:29 10:38:25 11° 87° (E) 10:39:37 .
Oscar 11 01 Jul 10:38:16 10:42:33 57° 100° (E) 10:46:50 145.826/435.025
VERMONT LUNAR 01 Jul 10:40:14 10:42:56 26° 167° (SSE) 10:45:40 437.305
DUCHIFAT 1 01 Jul 10:41:53 10:45:31 28° 68° (ENE) 10:49:10 145.980
POLYITAN 1 01 Jul 10:42:00 10:45:42 30° 68° (ENE) 10:49:26 437.675
RS-15 01 Jul 10:46:31 10:57:32 48° 37° (NE) 11:09:06 29.354- 29.394
BEESAT 3 01 Jul 10:49:16 10:51:46 15° 326° (NW) 10:54:12 437.485
DOVE 4 01 Jul 10:49:53 10:53:27 26° 292° (WNW) 10:56:54 437.250
AAUSAT CUBESAT 2 01 Jul 10:51:17 10:55:21 47° 288° (WNW) 10:59:23 437.432
BEESAT 2 01 Jul 10:55:57 10:58:37 16° 325° (NW) 11:01:12 435.950
DANDE 01 Jul 10:58:46 11:03:51 20° 294° (WNW) 11:07:58 436.750
FUNcube-1 01 Jul 10:58:50 11:02:56 54° 100° (E) 11:07:06 145.935
UWE-3 01 Jul 11:01:07 11:05:19 76° 103° (ESE) 11:09:34 435.000/436.395/437.385
ANTELSAT 01 Jul 11:05:30 11:09:48 68° 258° (WSW) 11:14:05 437.575/2403.000
HUMSAT D 01 Jul 11:10:53 11:14:37 32° 96° (E) 11:18:24 437.325/437.525
QB50P2 01 Jul 11:11:43 11:15:56 62° 74° (ENE) 11:20:08 145.880/145.840
CUTE 1.7 + AOD 2 01 Jul 11:12:54 11:15:54 18° 295° (WNW) 11:18:47 437.475
POPSAT HIP 1 01 Jul 11:13:26 11:17:38 62° 74° (ENE) 11:21:52 437.405
COMPASS 1 01 Jul 11:14:35 11:18:03 24° 293° (WNW) 11:21:27 437.405
BUGSAT 1 01 Jul 11:15:06 11:19:07 43° 71° (ENE) 11:23:08 437.445
CANX-2 01 Jul 11:15:55 11:18:36 16° 296° (WNW) 11:21:08 2200.000
TIGRISAT 01 Jul 11:19:44 11:23:56 49° 261° (W) 11:28:05 435.000
GONETS M04 01 Jul 11:20:42 11:29:02 44° 290° (WNW) 11:37:16
VELOX 1 01 Jul 11:21:17 11:24:30 20° 92° (E) 11:27:47 145.980
ISS 01 Jul 11:31:34 11:34:43 45° 339° (NNW) 11:37:51 145.825
DELFI C3 01 Jul 11:32:34 11:36:32 50° 287° (WNW) 11:40:28 145.870
CUBEBUG 2 01 Jul 11:38:59 11:42:47 34° 290° (WNW) 11:46:35 437.445
PHONESAT 2.4 01 Jul 11:42:02 11:44:49 23° 161° (SSE) 11:47:38 2401.200-2431.200
DX 1 01 Jul 11:44:14 11:48:33 60° 101° (E) 11:52:51 434.975-435.025
AIST 2 01 Jul 11:49:39 11:52:38 18° 324° (NW) 11:55:32 435.215
QB50P1 01 Jul 11:53:02 11:57:10 48° 261° (W) 12:01:18 145.935-145.965
ZACube-1 01 Jul 11:57:28 12:01:17 35° 290° (WNW) 12:05:07 437.345
UNISAT 6 01 Jul 11:59:10 12:02:23 20° 268° (W) 12:05:28 437.425
50 SAT 01 Jul 12:00:22 12:04:13 59° 101° (E) 12:08:05 437.505
CINEMA 3 01 Jul 12:04:54 12:06:04 11° 299° (WNW) 12:07:03 145.822/145.860
AISAT 01 Jul 12:06:21 12:10:44 59° 101° (E) 12:15:05 437.250
Cosmos 2499 01 Jul 12:08:21 12:15:27 83° 279° (W) 12:22:37 435.465 / 435.565
NANOSAT C BR1 01 Jul 12:09:05 12:12:58 33° 264° (W) 12:16:49 145.865
HO-68 01 Jul 12:09:15 12:14:10 20° 307° (NW) 12:18:52 435.675
UKube-1 01 Jul 12:10:50 12:15:12 77° 284° (WNW) 12:19:30 .
Oscar 11 01 Jul 12:15:35 12:18:20 16° 297° (WNW) 12:20:58 145.826/435.025
VERMONT LUNAR 01 Jul 12:16:36 12:19:31 34° 183° (S) 12:22:27 437.305
DUCHIFAT 1 01 Jul 12:17:35 12:21:17 28° 265° (W) 12:24:56 145.980
SPROUT 01 Jul 12:17:52 12:19:46 13° 88° (E) 12:21:50 437.525
POLYITAN 1 01 Jul 12:17:58 12:21:36 27° 266° (W) 12:25:12 437.675
ESTCUBE 1 01 Jul 12:24:58 12:29:30 60° 101° (E) 12:33:59 437.505/2401.250
CUBEBUG 1 01 Jul 12:36:00 12:40:23 67° 102° (ESE) 12:44:42 437.445
FUNcube-1 01 Jul 12:36:19 12:38:55 16° 296° (WNW) 12:41:24 145.935
UWE-3 01 Jul 12:39:43 12:41:21 12° 298° (WNW) 12:42:48 435.000/436.395/437.385
HUMSAT D 01 Jul 12:46:53 12:50:14 24° 293° (WNW) 12:53:33 437.325/437.525
QB50P2 01 Jul 12:50:11 12:52:17 13° 272° (W) 12:54:13 145.880/145.840
BUGSAT 1 01 Jul 12:51:44 12:54:48 19° 269° (W) 12:57:45 437.445
POPSAT HIP 1 01 Jul 12:51:54 12:53:59 13° 272° (W) 12:55:53 437.405
VELOX 1 01 Jul 12:57:04 13:01:17 43° 290° (WNW) 13:05:27 145.980
Oscar 19 01 Jul 12:58:50 13:03:27 36° 67° (ENE) 13:08:08 437.125/150
RS-15 01 Jul 12:59:12 13:10:46 68° 242° (WSW) 13:22:43 29.354- 29.394
YUBILEINY 01 Jul 13:01:21 13:04:47 13° 49° (NE) 13:08:47 435.215
ITAMSAT 1 01 Jul 13:04:55 13:07:21 14° 57° (ENE) 13:10:01 435.822/435.867
ISS 01 Jul 13:08:51 13:11:37 25° 358° (N) 13:14:23 145.825
TISAT 1 01 Jul 13:12:41 13:16:27 32° 96° (E) 13:20:13 437.305
PHONESAT 2.4 01 Jul 13:19:11 13:22:25 38° 178° (S) 13:25:41 2401.200-2431.200
DX 1 01 Jul 13:21:43 13:24:23 16° 298° (WNW) 13:26:54 434.975-435.025
AO-7 01 Jul 13:22:21 13:25:12 12° 38° (NE) 13:28:26 29.400- 29.500
BEESAT 01 Jul 13:35:45 13:36:15 10° 85° (E) 13:37:05 436.000
50 SAT 01 Jul 13:36:33 13:38:26 13° 297° (WNW) 13:40:10 437.505
AISAT 01 Jul 13:44:07 13:46:54 16° 298° (WNW) 13:49:32 437.250
SWISSCUBE 01 Jul 13:48:46 13:51:37 16° 89° (E) 13:54:40 437.505
SPROUT 01 Jul 13:52:06 13:56:21 63° 286° (WNW) 14:00:33 437.525
ITUPSAT 1 01 Jul 13:52:19 13:55:08 16° 89° (E) 13:58:07 437.325
VERMONT LUNAR 01 Jul 13:53:40 13:56:01 19° 200° (SSW) 13:58:22 437.305
ESTCUBE 1 01 Jul 14:02:58 14:05:56 17° 298° (WNW) 14:08:45 437.505/2401.250
Cosmos 2499 01 Jul 14:05:46 14:10:01 16° 303° (WNW) 14:13:58 435.465 / 435.565
JAS-2 01 Jul 14:10:04 14:12:29 14° 56° (NE) 14:15:11 435.910
CUBEBUG 1 01 Jul 14:13:49 14:16:15 14° 298° (WNW) 14:18:31 437.445
Gurwin Techsat 1B 01 Jul 14:14:11 14:19:18 51° 71° (ENE) 14:24:29 435.225
Oscar 19 01 Jul 14:38:16 14:42:51 32° 265° (W) 14:47:24 437.125/150
ITAMSAT 1 01 Jul 14:40:55 14:46:09 85° 75° (ENE) 14:51:26 435.822/435.867
ISS 01 Jul 14:45:30 14:48:34 38° 18° (NNE) 14:51:38 145.825
TISAT 1 01 Jul 14:48:39 14:52:07 25° 293° (WNW) 14:55:29 437.305
YUBILEINY 01 Jul 14:55:33 15:04:09 58° 75° (ENE) 15:12:47 435.215
PHONESAT 2.4 01 Jul 14:57:04 15:00:04 27° 195° (SSW) 15:03:05 2401.200-2431.200
AO-7 01 Jul 15:08:18 15:16:00 45° 60° (ENE) 15:23:50 29.400- 29.500
BEESAT 01 Jul 15:10:05 15:14:56 88° 104° (ESE) 15:19:44 436.000
RS-15 01 Jul 15:14:29 15:21:23 17° 261° (W) 15:27:27 29.354- 29.394
Cosmos 2491 01 Jul 15:18:19 15:26:03 37° 86° (E) 15:33:57 435.465 / 435.565
SWISSCUBE 01 Jul 15:25:12 15:29:59 63° 287° (WNW) 15:34:43 437.505
ITUPSAT 1 01 Jul 15:28:44 15:33:33 64° 287° (WNW) 15:38:18 437.325
PCSat 01 Jul 15:33:47 15:34:33 10° 103° (ESE) 15:35:41 145.827
Cosmos 2504 01 Jul 15:43:11 15:46:28 13° 55° (NE) 15:50:17 435.465 / 435.565
KKS-1 01 Jul 15:44:22 15:48:28 36° 97° (E) 15:52:34 437.445
HORYU 2 01 Jul 15:44:44 15:49:02 54° 72° (ENE) 15:53:22 437.375
BEESAT 3 01 Jul 15:48:48 15:51:30 17° 36° (NE) 15:54:14 437.485
AIST 1 01 Jul 15:50:26 15:53:53 24° 89° (E) 15:57:28
JAS-2 01 Jul 15:51:42 15:56:53 89° 250° (WSW) 16:02:16 435.910
Gurwin Techsat 1B 01 Jul 15:55:25 15:59:38 23° 269° (W) 16:03:44 435.225
BEESAT 2 01 Jul 15:56:02 15:58:41 16° 35° (NE) 16:01:23 435.950
ISS 01 Jul 16:21:55 16:25:01 43° 217° (SW) 16:28:06 145.825
ITAMSAT 1 01 Jul 16:23:56 16:26:27 13° 274° (W) 16:28:41 435.822/435.867
STARS 01 Jul 16:44:58 16:49:22 85° 285° (WNW) 16:53:44 437.465
BEESAT 01 Jul 16:49:49 16:52:08 13° 301° (WNW) 16:54:15 436.000
AIST 2 01 Jul 16:51:33 16:54:18 17° 35° (NE) 16:57:06 435.215
SO-50 01 Jul 16:51:58 16:52:01 10° 107° (ESE) 16:52:22 436.795
YUBILEINY 01 Jul 16:52:59 17:00:37 34° 275° (W) 17:08:05 435.215
CUTE-I 01 Jul 16:53:55 16:56:22 14° 57° (ENE) 16:59:03 437.470
AO-7 01 Jul 17:00:48 17:08:48 48° 260° (W) 17:16:49 29.400- 29.500
O/OREOS (USA 219) 01 Jul 17:01:25 17:04:28 18° 50° (NE) 17:07:37 437.305
PCSat 01 Jul 17:11:45 17:17:09 74° 120° (ESE) 17:22:36 145.827
MOZHAYETS 4 01 Jul 17:13:06 17:17:21 34° 96° (E) 17:21:36
Cosmos 2491 01 Jul 17:14:04 17:22:42 54° 287° (WNW) 17:31:17 435.465 / 435.565
KKS-1 01 Jul 17:21:19 17:24:57 25° 294° (WNW) 17:28:30 437.445
HORYU 2 01 Jul 17:23:14 17:26:03 16° 270° (W) 17:28:43 437.375
Cubesat XI-IV 01 Jul 17:24:58 17:29:08 24° 63° (ENE) 17:33:27 437.490
BEESAT 3 01 Jul 17:25:54 17:29:59 76° 235° (SW) 17:33:58 437.485
AIST 1 01 Jul 17:27:25 17:31:25 33° 287° (WNW) 17:35:25
BEESAT 2 01 Jul 17:33:12 17:37:19 81° 237° (WSW) 17:41:21 435.950
Cosmos 2504 01 Jul 17:34:05 17:41:37 66° 78° (ENE) 17:49:44 435.465 / 435.565
JAS-2 01 Jul 17:41:56 17:43:08 10° 277° (W) 17:43:58 435.910
STARS 01 Jul 18:24:16 18:25:09 10° 301° (WNW) 18:25:49 437.465
SO-50 01 Jul 18:27:03 18:31:47 77° 124° (ESE) 18:36:41 436.795
AIST 2 01 Jul 18:29:13 18:33:28 84° 236° (SW) 18:37:37 435.215
CUTE-I 01 Jul 18:30:19 18:35:41 82° 74° (ENE) 18:41:07 437.470
O/OREOS (USA 219) 01 Jul 18:39:52 18:44:21 62° 249° (WSW) 18:48:49 437.305
MOZHAYETS 4 01 Jul 18:50:30 18:54:28 28° 293° (WNW) 18:58:22
PCSat 01 Jul 18:56:51 19:01:11 23° 320° (NW) 19:05:26 145.827
Cubesat XI-IV 01 Jul 19:03:42 19:08:56 53° 260° (W) 19:14:13 437.490
HO-68 01 Jul 19:05:39 19:10:31 21° 53° (NE) 19:15:36 435.675
CUBESAT XI-V 01 Jul 19:07:13 19:11:44 45° 97° (E) 19:16:13 437.345
PRISM 01 Jul 19:12:39 19:15:01 15° 90° (E) 19:17:34 437.425
CUSAT 1 01 Jul 19:13:33 19:15:50 22° 70° (ENE) 19:17:59 437.405
Cosmos 2491 01 Jul 19:18:54 19:22:18 12° 313° (NW) 19:25:06 435.465 / 435.565
GOMX 1 01 Jul 19:20:00 19:23:33 20° 65° (ENE) 19:27:07 467.674
BRITE-PL 01 Jul 19:26:03 19:30:59 35° 69° (ENE) 19:35:43 437.365/2234.400
Cosmos 2504 01 Jul 19:28:23 19:34:34 27° 275° (W) 19:40:51 435.465 / 435.565
GONETS M04 01 Jul 19:31:35 19:38:23 26° 61° (ENE) 19:45:25
SEEDS 01 Jul 19:50:54 19:53:06 14° 63° (ENE) 19:55:28 437.485
DANDE 01 Jul 19:54:00 19:57:08 53° 76° (ENE) 19:59:46 436.750
CINEMA 3 01 Jul 19:55:13 19:56:32 11° 61° (ENE) 19:58:04 145.822/145.860
SO-50 01 Jul 20:09:07 20:12:54 22° 325° (NW) 20:16:42 436.795
AAUSAT CUBESAT 2 01 Jul 20:10:07 20:12:32 16° 64° (ENE) 20:15:06 437.432
CUTE-I 01 Jul 20:13:35 20:16:32 14° 273° (W) 20:19:14 437.470
DOVE 4 01 Jul 20:19:01 20:23:36 41° 71° (ENE) 20:27:59 437.250
STRAND 1 01 Jul 20:19:42 20:24:53 76° 103° (ESE) 20:30:02 437.568
CUTE 1.7 + AOD 2 01 Jul 20:30:55 20:34:53 43° 72° (ENE) 20:38:55 437.475
COMPASS 1 01 Jul 20:31:58 20:35:33 29° 69° (ENE) 20:39:12 437.405
CANX-2 01 Jul 20:33:38 20:37:42 51° 73° (ENE) 20:41:49 2200.000
CUBESAT XI-V 01 Jul 20:45:14 20:48:55 22° 295° (WNW) 20:52:29 437.345
PRISM 01 Jul 20:46:43 20:50:50 52° 288° (WNW) 20:54:55 437.425
DELFI C3 01 Jul 20:48:57 20:50:44 13° 63° (ENE) 20:52:41 145.870
HO-68 01 Jul 20:50:15 20:57:25 88° 73° (ENE) 21:04:37 435.675
GOMX 1 01 Jul 20:56:11 21:01:22 60° 260° (W) 21:06:15 467.674
CUBEBUG 2 01 Jul 21:03:06 21:06:36 25° 68° (ENE) 21:10:08 437.445
BRITE-PL 01 Jul 21:04:25 21:09:29 35° 265° (W) 21:14:15 437.365/2234.400
ZACube-1 01 Jul 21:19:47 21:23:06 23° 67° (ENE) 21:26:28 437.345
SEEDS 01 Jul 21:24:20 21:28:28 60° 259° (W) 21:32:38 437.485
GONETS M04 01 Jul 21:27:39 21:36:22 78° 264° (W) 21:45:01
CINEMA 3 01 Jul 21:28:38 21:33:13 87° 257° (WSW) 21:37:37 145.822/145.860
AUBIESAT-1 01 Jul 21:32:33 21:36:15 32° 102° (ESE) 21:40:14 437.475
UKube-1 01 Jul 21:33:54 21:36:03 14° 61° (ENE) 21:38:22 .
Oscar 11 01 Jul 21:34:51 21:39:03 56° 73° (ENE) 21:43:17 145.826/435.025
AAUSAT CUBESAT 2 01 Jul 21:43:42 21:47:45 53° 260° (W) 21:51:51 437.432
Cosmos 2499 01 Jul 21:55:41 22:02:46 40° 71° (ENE) 22:10:27 435.465 / 435.565
FUNcube-1 01 Jul 21:56:30 22:00:36 54° 73° (ENE) 22:04:41 145.935
DOVE 4 01 Jul 21:57:27 22:01:29 24° 267° (W) 22:05:17 437.250
UWE-3 01 Jul 22:00:07 22:04:24 79° 76° (ENE) 22:08:37 435.000/436.395/437.385
STRAND 1 01 Jul 22:00:16 22:03:32 17° 300° (WNW) 22:06:36 437.568
M-CUBED/EXP-1 PRIME 01 Jul 22:03:26 22:07:31 79° 108° (ESE) 22:11:55 437.505
HUMSAT D 01 Jul 22:04:45 22:08:19 30° 69° (ENE) 22:11:56 437.325/437.525
COMPASS 1 01 Jul 22:07:42 22:11:14 26° 266° (W) 22:14:43 437.405
CUTE 1.7 + AOD 2 01 Jul 22:08:05 22:11:03 18° 269° (W) 22:13:55 437.475
CANX-2 01 Jul 22:11:24 22:13:59 15° 271° (W) 22:16:26 2200.000
VELOX 1 01 Jul 22:20:47 22:24:21 24° 66° (ENE) 22:27:59 145.980
DELFI C3 01 Jul 22:21:24 22:25:22 63° 259° (W) 22:29:22 145.870
CUBEBUG 2 01 Jul 22:39:18 22:43:13 32° 264° (W) 22:47:01 437.445
HO-68 01 Jul 22:41:23 22:46:12 18° 273° (W) 22:50:41 435.675
DX 1 01 Jul 22:41:31 22:45:52 69° 74° (ENE) 22:50:15 434.975-435.025
50 SAT 01 Jul 22:46:24 22:50:02 43° 72° (ENE) 22:53:42 437.505
ZACube-1 01 Jul 22:55:28 22:59:20 34° 264° (W) 23:03:09 437.345
ANTELSAT 01 Jul 22:55:48 22:59:02 21° 92° (E) 23:02:25 437.575/2403.000
AISAT 01 Jul 23:05:47 23:10:14 69° 75° (ENE) 23:14:42 437.250
UKube-1 01 Jul 23:07:21 23:11:41 70° 258° (WSW) 23:16:02 .
AUBIESAT-1 01 Jul 23:07:26 23:10:55 27° 297° (WNW) 23:14:33 437.475
TIGRISAT 01 Jul 23:09:18 23:12:59 27° 95° (E) 23:16:46 435.000
Oscar 11 01 Jul 23:13:07 23:15:39 15° 271° (W) 23:18:00 145.826/435.025
SPROUT 01 Jul 23:14:16 23:16:34 15° 63° (ENE) 23:19:01 437.525
ESTCUBE 1 01 Jul 23:26:20 23:30:51 71° 74° (ENE) 23:35:24 437.505/2401.250
GONETS M04 01 Jul 23:26:50 23:31:54 16° 284° (WNW) 23:36:28
CUBEBUG 1 01 Jul 23:33:45 23:38:10 72° 74° (ENE) 23:42:37 437.445
FUNcube-1 01 Jul 23:34:55 23:37:20 14° 271° (W) 23:39:32 145.935
QB50P1 01 Jul 23:36:31 23:39:48 22° 93° (E) 23:43:11 145.935-145.965
M-CUBED/EXP-1 PRIME 01 Jul 23:40:02 23:41:56 13° 302° (WNW) 23:43:44 437.505
HUMSAT D 01 Jul 23:40:40 23:44:06 24° 266° (W) 23:47:27 437.325/437.525
UNISAT 6 01 Jul 23:47:14 23:51:35 70° 102° (ESE) 23:56:00 437.425
Cosmos 2499 01 Jul 23:48:46 23:56:03 46° 270° (W) 00:03:47 435.465 / 435.565
NANOSAT C BR1 01 Jul 23:51:40 23:55:26 32° 96° (E) 23:59:13 145.865
VELOX 1 01 Jul 23:56:33 00:00:45 37° 263° (W) 00:04:55 145.980
DUCHIFAT 1 01 Jul 23:59:38 00:03:33 37° 97° (E) 00:07:28 145.980
POLYITAN 1 02 Jul 00:00:35 00:04:34 41° 98° (E) 00:08:34 437.675
TISAT 1 02 Jul 00:06:41 00:10:28 32° 69° (ENE) 00:14:16 437.305
PCSat 02 Jul 00:15:03 00:18:56 20° 37° (NE) 00:22:55 145.827
DX 1 02 Jul 00:20:38 00:22:39 13° 272° (W) 00:24:29 434.975-435.025
50 SAT 02 Jul 00:22:35 00:24:56 15° 270° (W) 00:27:09 437.505
BUGSAT 1 02 Jul 00:30:29 00:34:31 54° 100° (E) 00:38:28 437.445
QB50P2 02 Jul 00:30:40 00:34:54 89° 93° (E) 00:39:08 145.880/145.840
ANTELSAT 02 Jul 00:31:55 00:36:01 41° 289° (WNW) 00:40:09 437.575/2403.000
POPSAT HIP 1 02 Jul 00:32:13 00:36:27 89° 101° (ESE) 00:40:39 437.405
BEESAT 02 Jul 00:42:55 00:45:53 17° 61° (ENE) 00:49:00 436.000
AISAT 02 Jul 00:45:12 00:47:22 13° 272° (W) 00:49:19 437.250
TIGRISAT 02 Jul 00:45:55 00:49:45 31° 291° (WNW) 00:53:35 435.000
SPROUT 02 Jul 00:47:54 00:52:12 64° 259° (W) 00:56:30 437.525
SWISSCUBE 02 Jul 00:57:04 01:00:50 24° 65° (ENE) 01:04:43 437.505
ITUPSAT 1 02 Jul 01:00:53 01:04:38 24° 64° (ENE) 01:08:30 437.325
ESTCUBE 1 02 Jul 01:06:06 01:08:18 13° 273° (W) 01:10:17 437.505/2401.250
QB50P1 02 Jul 01:11:56 01:15:47 34° 290° (WNW) 01:19:35 145.935-145.965
CUBEBUG 1 02 Jul 01:13:10 01:15:06 12° 273° (W) 01:16:50 437.445
SO-50 02 Jul 01:16:45 01:20:43 24° 37° (NE) 01:24:44 436.795
RS-15 02 Jul 01:19:48 01:24:48 15° 98° (E) 01:30:44 29.354- 29.394
UNISAT 6 02 Jul 01:25:38 01:27:54 14° 298° (WNW) 01:30:01 437.425
Cosmos 2491 02 Jul 01:25:53 01:31:58 21° 57° (ENE) 01:38:21 435.465 / 435.565
NANOSAT C BR1 02 Jul 01:27:41 01:31:10 25° 293° (WNW) 01:34:33 145.865
DUCHIFAT 1 02 Jul 01:35:55 01:39:09 21° 294° (WNW) 01:42:18 145.980
POLYITAN 1 02 Jul 01:37:06 01:40:14 20° 295° (WNW) 01:43:17 437.675
TISAT 1 02 Jul 01:42:43 01:46:16 25° 266° (W) 01:49:45 437.305
PCSat 02 Jul 01:57:42 02:03:11 89° 80° (E) 02:08:36 145.827
BUGSAT 1 02 Jul 02:07:11 02:09:35 15° 297° (WNW) 02:11:51 437.445
QB50P2 02 Jul 02:09:15 02:10:12 10° 300° (WNW) 02:10:55 145.880/145.840
YUBILEINY 02 Jul 02:09:53 02:12:02 11° 73° (ENE) 02:14:52 435.215
STARS 02 Jul 02:10:04 02:12:03 13° 61° (ENE) 02:14:14 437.465
POPSAT HIP 1 02 Jul 02:10:51 02:11:42 10° 300° (WNW) 02:12:21 437.405
BEESAT 02 Jul 02:18:32 02:23:16 66° 258° (WSW) 02:28:03 436.000
Gurwin Techsat 1B 02 Jul 02:29:20 02:32:42 17° 88° (E) 02:36:16 435.225
SWISSCUBE 02 Jul 02:33:56 02:38:29 43° 262° (W) 02:43:04 437.505
ITUPSAT 1 02 Jul 02:37:43 02:42:19 44° 262° (W) 02:46:54 437.325
KKS-1 02 Jul 02:44:20 02:48:33 43° 70° (ENE) 02:52:48 437.445
Oscar 19 02 Jul 02:46:51 02:52:00 78° 102° (ESE) 02:57:09 437.125/150
ITAMSAT 1 02 Jul 02:52:17 02:56:34 26° 93° (E) 03:00:56 435.822/435.867
SO-50 02 Jul 02:56:49 03:01:46 71° 238° (WSW) 03:06:39 436.795
JAS-2 02 Jul 02:59:24 03:01:39 12° 84° (E) 03:04:27 435.910
Cosmos 2491 02 Jul 03:21:35 03:30:25 87° 83° (E) 03:39:09 435.465 / 435.565
RS-15 02 Jul 03:24:27 03:35:10 68° 118° (ESE) 03:46:17 29.354- 29.394
AIST 1 02 Jul 03:31:53 03:36:18 74° 80° (E) 03:40:38
PCSat 02 Jul 03:43:06 03:45:55 14° 255° (WSW) 03:48:26 145.827
STARS 02 Jul 03:43:35 03:47:59 75° 257° (WSW) 03:52:24 437.465
YUBILEINY 02 Jul 03:58:44 04:07:12 62° 92° (E) 04:15:45 435.215
Gurwin Techsat 1B 02 Jul 04:07:58 04:13:16 68° 288° (WNW) 04:18:33 435.225
MOZHAYETS 4 02 Jul 04:16:56 04:21:12 41° 70° (ENE) 04:25:32
KKS-1 02 Jul 04:22:01 04:25:25 20° 268° (W) 04:28:41 437.445
Oscar 19 02 Jul 04:27:39 04:30:49 16° 300° (WNW) 04:33:47 437.125/150
ITAMSAT 1 02 Jul 04:31:19 04:36:17 44° 291° (WNW) 04:41:12 435.822/435.867
JAS-2 02 Jul 04:41:22 04:47:46 71° 102° (ESE) 04:54:59 435.910
AO-7 02 Jul 04:59:28 05:07:38 54° 101° (E) 05:15:46 29.400- 29.500
HORYU 2 02 Jul 05:10:08 05:14:37 83° 103° (ESE) 05:19:06 437.375
AIST 1 02 Jul 05:12:12 05:13:21 11° 277° (W) 05:14:15
Cosmos 2491 02 Jul 05:20:03 05:26:15 21° 281° (W) 05:32:03 435.465 / 435.565
RS-15 02 Jul 05:37:51 05:48:19 46° 325° (NW) 05:59:09 29.354- 29.394
Gurwin Techsat 1B 02 Jul 05:50:48 05:52:22 11° 305° (NW) 05:53:41 435.225
MOZHAYETS 4 02 Jul 05:54:59 05:58:37 22° 268° (W) 06:02:11
YUBILEINY 02 Jul 05:56:59 06:04:40 33° 295° (WNW) 06:12:13 435.215
STRAND 1 02 Jul 06:00:25 06:03:59 20° 61° (ENE) 06:07:44 437.568
PRISM 02 Jul 06:04:57 06:07:26 16° 63° (ENE) 06:10:05 437.425
CUBESAT XI-V 02 Jul 06:12:19 06:16:53 55° 73° (ENE) 06:21:33 437.345
Cosmos 2504 02 Jul 06:15:31 06:22:22 49° 91° (E) 06:29:14 435.465 / 435.565
JAS-2 02 Jul 06:27:27 06:32:29 25° 298° (WNW) 06:37:47 435.910
CUTE-I 02 Jul 06:45:51 06:50:23 28° 93° (E) 06:54:58 437.470
HORYU 2 02 Jul 06:48:46 06:50:41 12° 300° (WNW) 06:52:26 437.375
AO-7 02 Jul 06:52:36 07:00:16 41° 301° (WNW) 07:07:48 29.400- 29.500
O/OREOS (USA 219) 02 Jul 07:18:19 07:19:33 11° 99° (E) 07:21:01 437.305
Cubesat XI-IV 02 Jul 07:18:44 07:24:01 53° 100° (E) 07:29:16 437.490
M-CUBED/EXP-1 PRIME 02 Jul 07:22:00 07:23:19 12° 57° (ENE) 07:24:46 437.505
BEESAT 3 02 Jul 07:23:00 07:24:14 11° 110° (ESE) 07:25:40 437.485
DANDE 02 Jul 07:24:51 07:27:57 14° 88° (E) 07:31:09 436.750
BEESAT 2 02 Jul 07:31:27 07:32:31 11° 110° (ESE) 07:33:49 435.950
STRAND 1 02 Jul 07:37:41 07:42:46 62° 258° (WSW) 07:47:55 437.568
PRISM 02 Jul 07:38:24 07:42:30 54° 260° (W) 07:46:38 437.425
CUBESAT XI-V 02 Jul 07:51:30 07:54:44 18° 271° (W) 07:57:50 437.345
RS-15 02 Jul 07:55:10 08:04:29 28° 358° (N) 08:14:07 29.354- 29.394
Cosmos 2504 02 Jul 08:09:42 08:16:05 32° 292° (WNW) 08:22:22 435.465 / 435.565
HO-68 02 Jul 08:17:58 08:21:21 14° 84° (E) 08:25:10 435.675
CUSAT 1 02 Jul 08:19:24 08:25:46 46° 97° (E) 08:30:45 437.405
AUBIESAT-1 02 Jul 08:22:50 08:26:03 51° 68° (ENE) 08:29:24 437.475
CUTE-I 02 Jul 08:25:34 08:30:39 43° 292° (WNW) 08:35:41 437.470
AIST 2 02 Jul 08:31:15 08:33:01 13° 110° (ESE) 08:34:59 435.215
GONETS M04 02 Jul 08:36:34 08:43:13 26° 81° (E) 08:50:09
AO-7 02 Jul 08:48:33 08:50:54 11° 324° (NW) 08:52:51 29.400- 29.500
O/OREOS (USA 219) 02 Jul 08:53:54 08:58:23 78° 295° (WNW) 09:02:52 437.305
M-CUBED/EXP-1 PRIME 02 Jul 08:54:36 08:57:47 48° 255° (WSW) 09:01:05 437.505
GOMX 1 02 Jul 08:56:39 09:00:27 31° 95° (E) 09:04:11 467.674
BEESAT 3 02 Jul 08:57:34 09:01:39 79° 306° (NW) 09:05:47 437.485
Cubesat XI-IV 02 Jul 08:59:31 09:03:49 24° 297° (WNW) 09:07:58 437.490
ISS 02 Jul 09:02:48 09:05:04 18° 136° (SE) 09:07:23 145.825
DANDE 02 Jul 09:03:21 09:10:52 79° 99° (E) 09:16:37 436.750
BEESAT 2 02 Jul 09:05:55 09:10:02 82° 306° (NW) 09:14:12 435.950
SEEDS 02 Jul 09:07:15 09:10:17 19° 91° (E) 09:13:27 437.485
BRITE-PL 02 Jul 09:07:15 09:11:42 70° 101° (E) 09:15:53 437.365/2234.400
